Regional Weather Roundup
Issued by NWS

Home | Current Version | Previous Version | Text Only | Print | Product List | Glossary On
Versions: 1 2 3 4 5 6 7 8 9 10 11 12 13 14 15 16 17 18 19 20 21 22 23 24 25 26 27
000
ASUS45 KREV 051810
RWRNV
NEVADA REGIONAL WEATHER ROUNDUP
NATIONAL WEATHER SERVICE RENO NV
1100 AM PDT THU MAY 05 2016

NOTE: "FAIR" INDICATES FEW OR NO CLOUDS BELOW 12,000 FEET WITH NO
SIGNIFICANT WEATHER AND/OR OBSTRUCTIONS TO VISIBILITY.

NVZ001-003-004-051900-
WESTERN NEVADA

CITY           SKY/WX    TMP DP  RH WIND       PRES   REMARKS
RENO           PTSUNNY   54  43  66 NW9       29.89S
6HR MIN TEMP:  42; 6HR MAX TEMP:  56; 6HR PCP:  0.23;

CARSON CITY    FAIR      55  45  67 N17G24    29.87F
MINDEN         FAIR      57  45  62 N14       29.87F
SLIDE MTN        N/A     32  32 100 SE14        N/A
PYRAMID LAKE     N/A     52 N/A N/A W1          N/A
FALLON         CLOUDY    69  37  30 N7        29.80F
6HR MIN TEMP:  56; 6HR MAX TEMP:  69; 6HR PCP: TRACE;

LOVELOCK       PTSUNNY   70  38  31 NE17G26   29.81S
6HR MIN TEMP:  57; 6HR MAX TEMP:  70;

$$

NVZ002-CAZ072-073-051900-
NORTHERN AND CENTRAL SIERRA

CITY           SKY/WX    TMP DP  RH WIND       PRES   REMARKS
S. LAKE TAHOE  LGT RAIN  49  38  65 CALM      29.90R
6HR MIN TEMP:  39; 6HR MAX TEMP:  53; 6HR PCP: TRACE;

TRUCKEE        CLOUDY    48  43  81 N5        29.91F
SQUAW VLY 8000   N/A     43  36  75 SE3         N/A
BLUE CANYON    FOG       45  44  97 W7        29.89R VSB<1/4
MAMMOTH LAKES  FAIR      58  12  16 E24       29.88S
6HR MIN TEMP:  31; 6HR MAX TEMP:  58;

BRIDGEPORT     PTSUNNY   54  31  41 VRB5      29.84F
$$

NVZ030-031-036-051900-
NORTHERN NEVADA

CITY           SKY/WX    TMP DP  RH WIND       PRES   REMARKS
ELKO           MOSUNNY   71  34  25 W3        29.85F
6HR MIN TEMP:  49; 6HR MAX TEMP:  71;

WINNEMUCCA     PTSUNNY   66  41  40 NE10      29.82F
6HR MIN TEMP:  41; 6HR MAX TEMP:  66;

WENDOVER       PTSUNNY   70  39  32 SE9       29.90S
$$

NVZ035-037-051900-
CENTRAL NEVADA

CITY           SKY/WX    TMP DP  RH WIND       PRES   REMARKS
ELY            MOSUNNY   66  20  17 S30G38    29.95F
6HR MIN TEMP:  35; 6HR MAX TEMP:  67;

EUREKA           N/A     68  24  19 S28G37    29.88F
6HR MIN TEMP:  36; 6HR MAX TEMP:  68;

$$

NVZ013-014-051900-
SOUTH CENTRAL NEVADA

CITY           SKY/WX    TMP DP  RH WIND       PRES   REMARKS
TONOPAH        PTSUNNY   68  31  25 S25G33    29.86F
6HR MIN TEMP:  45; 6HR MAX TEMP:  68;

$$

NVZ017-020-022-051900-
SOUTHERN NEVADA

CITY           SKY/WX    TMP DP  RH WIND       PRES   REMARKS
LAS VEGAS      CLOUDY    80  23  12 S17G25    29.77F
6HR MIN TEMP:  69; 6HR MAX TEMP:  80;

N. LAS VEGAS   PTSUNNY   78  32  18 SE9       29.81F
6HR MIN TEMP:  65; 6HR MAX TEMP:  79;

NELLIS AFB     CLOUDY    80  28  14 E21G30    29.80S
6HR MIN TEMP:  66; 6HR MAX TEMP:  81;

HENDERSON      PTSUNNY   78  27  15 SE16G30   29.83F
6HR MIN TEMP:  65; 6HR MAX TEMP:  79;

MERCURY        CLOUDY    75  34  22 SW9       29.80F
6HR MIN TEMP:  56; 6HR MAX TEMP:  75;

$$




USA.gov is the U.S. government's official web portal to all federal, state and local government web resources and services.